Cloud_Cover
0 0 0 0 0 1 5 2 84 39 100 26 94 95 7 100 56 100 3 0 0 0 0 0 0 0 0 0 0 0 0 0 0 0 0 0 0 0 0 0 0 0 0 4
0 0 0 0 0 0 0 5 30 100 26 98 100 89 85 98 56 46 67 0 0 0 0 0 0 0 0 0 0 0 0 0 0 0 0 0 0 0 0 0 0 0 5 36
0 0 0 0 0 0 0 0 4 87 70 98 88 73 92 56 99 65 47 2 0 0 0 0 0 0 0 0 0 0 0 0 0 0 0 0 0 0 0 0 0 0 0 0
0 0 0 0 0 0 0 0 0 3 99 92 12 50 28 45 58 7 13 41 4 0 0 0 0 0 0 0 0 0 0 0 0 0 0 0 0 0 0 0 0 0 0 0
0 0 0 0 0 0 0 0 0 0 5 63 64 26 5 51 21 8 4 31 6 0 0 0 0 0 0 0 0 0 0 0 0 0 0 0 0 0 0 0 0 0 4 0
0 0 0 0 0 0 0 0 0 0 0 0 1 5 5 49 79 76 4 6 21 5 0 0 0 0 0 0 0 0 0 0 0 0 0 0 0 0 0 0 0 0 0 0
0 0 0 0 0 0 0 0 0 0 0 0 0 0 0 5 5 5 5 5 4 0 0 0 0 0 0 0 0 0 0 0 0 0 0 0 0 0 0 0 0 0 0 0
0 0 0 0 0 0 0 0 0 0 0 0 0 0 0 0 3 5 5 5 4 0 0 0 0 0 0 0 0 0 0 0 0 0 0 0 0 0 0 0 0 0 0 0
0 0 0 0 0 0 0 0 0 0 0 0 0 0 0 0 0 0 0 5 5 1 0 0 0 0 0 0 0 0 0 0 0 0 0 0 0 0 0 0 0 0 0 0
0 0 0 0 0 0 0 0 0 0 0 0 0 0 0 0 0 0 0 0 1 2 1 0 0 0 0 0 0 0 0 0 0 0 0 0 0 0 0 0 0 0 0 0
0 0 0 0 0 0 0 0 0 0 0 0 0 0 0 0 0 0 0 1 93 54 2 0 0 0 0 0 0 0 0 0 0 0 0 0 0 0 0 0 0 0 0 0
0 0 0 0 0 0 0 0 0 0 0 0 0 0 0 0 0 4 0 0 92 53 5 0 0 0 0 0 0 0 0 0 0 0 0 0 0 0 0 0 0 0 0 0
3 0 0 1 6 0 0 0 0 0 0 0 0 0 0 0 0 0 5 0 0 0 1 5 5 0 0 0 0 0 0 0 0 0 0 0 0 0 0 0 0 0 0 0
0 0 0 0 0 0 0 0 0 0 0 0 0 0 0 0 0 2 26 8 4 0 2 5 5 2 0 0 0 0 0 0 0 0 0 0 0 0 0 0 0 0 1 1
0 0 0 0 100 13 0 0 0 0 0 0 4 28 0 0 0 0 77 98 19 5 0 0 0 0 0 0 0 0 0 0 0 0 0 0 4 0 0 0 0 0 0 0
63 0 0 0 42 5 0 0 0 0 0 2 32 100 5 0 0 0 1 97 14 5 0 0 0 5 0 0 0 0 0 0 0 0 0 0 0 0 3 3 5 5 5 1
60 1 65 13 16 19 0 0 0 0 0 2 6 92 99 0 0 0 0 1 4 4 5 0 0 0 4 0 0 0 0 0 0 0 0 0 0 5 5 5 0 4 0 0
78 78 83 65 13 17 0 0 0 0 0 5 95 95 100 6 4 0 0 0 0 0 1 3 2 0 0 0 0 0 0 0 0 0 0 0 0 0 0 2 0 0 0 0
34 66 81 5 4 12 0 0 6 0 0 5 25 100 100 100 23 0 0 0 0 0 0 4 2 5 4 0 0 0 0 0 0 0 0 0 4 2 0 0 0 0 0 2
100 57 52 99 97 96 92 70 2 2 3 12 5 5 5 5 5 0 0 0 0 0 0 0 2 5 5 5 4 0 0 0 0 0 0 0 0 0 0 0 1 5 5 3
64 97 55 60 100 85 100 96 19 33 42 11 10 16 6 5 3 0 0 0 0 0 0 0 0 0 0 0 0 0 0 0 0 0 0 1 5 5 5 4 3 0 0 0
100 89 99 62 95 78 84 94 82 75 35 73 81 87 87 5 5 1 0 0 0 0 0 0 0 0 0 0 0 0 0 0 0 0 0 2 0 0 0 0 0 0 0 0
47 45 100 100 94 5 12 99 100 66 5 37 22 8 51 90 31 1 0 0 0 0 0 0 0 0 0 0 0 0 0 0 0 0 0 0 0 0 0 0 0 0 0 0
66 80 94 100 8 12 4 2 5 0 5 5 1 0 38 100 92 39 1 0 0 0 0 0 0 0 0 0 0 0 0 0 0 0 0 0 0 0 0 0 0 0 0 0
72 97 99 31 7 24 5 31 26 2 0 0 0 0 4 55 100 100 70 1 0 4 0 5 1 0 0 0 0 0 0 0 0 0 0 0 0 0 0 3 15 0 2 18
100 99 100 94 95 98 55 47 3 0 0 0 0 0 0 5 81 100 100 10 52 71 46 2 3 4 0 0 6 0 0 0 0 0 0 0 0 0 0 0 2 96 91 100